Location: Nied?wied?
(53.3665°N, 14.8184°E)
Time: 01:16:06
(UTC+00:00)

Resurs 01 Rocket - Pass Details

Date: 03 March 2021
Orbit: 635 x 643 km, 98.0° (Epoch: 11 April)

Event Time Altitude Azimuth Distance (km) Brightness Sun altitude
Exits shadow 19:12:41 69° 75° (ENE) 685 1.5 -22.8°
Maximum altitude 19:12:43 69° 71° (ENE) 685 1.5 -22.8°
Drops below altitude 10° 19:17:07 10° 349° (N) 2,038 4.6 -23.4°
Sets 19:19:21 0° 347° (NNW) 2,952 5.5 -23.7°
